Tracking 19149 objects as of 20-Apr-2018
HD Live streaming from Space Station
objects crossing your sky now

HIMAWARI 3 (GMS 3)

Track HIMAWARI 3 (GMS 3) now!
HIMAWARI 3 (GMS 3) is classified as:


NORAD ID: 15152
Int'l Code: 1984-080A
Perigee: 35,889.4 km
Apogee: 35,949.0 km
Inclination: 14.6 °
Period: 1,442.5 minutes
Semi major axis: 42290 km
RCS: 3.6122 m2 (large)
Launch date: August 2, 1984
Source: Japan (JPN)
Launch site: TANEGASHIMA SPACE CENTER (TNSTA)
aabbcc
Your satellite tracking list
Your tracking list is empty




NASA's NSSDC Master Catalog

Two Line Element Set (TLE):
1 15152U 84080A   18109.42543865 -.00000012 +00000-0 +00000-0 0  9994
2 15152 014.5739 348.7530 0007045 032.4316 226.6264 00.99825889122887
Source of the keplerian elements: AFSPC